This is the latest recevied weather packets stored in our database for station/object 4S6DRJ-13. If no packets are shown the sender has not sent any weather packets the latest 10 day(s).
| Time | Temp. | Humidity | Pressure | Rain* | Wind** | Luminosity | Snow |
|---|---|---|---|---|---|---|---|
| 1787878603 | 27.78° C | 87% | 1009.9 hPa | 0 mm | 0.89 m/s, 296° | 29 W/m² | - |
| 1787878541 | 27.78° C | 87% | 1009.8 hPa | 0 mm | 1.34 m/s, 150° | 27 W/m² | - |
| 1787878481 | 27.78° C | 87% | 1009.8 hPa | 0 mm | 0.89 m/s, 245° | 24 W/m² | - |
| 1787878419 | 27.78° C | 86% | 1009.8 hPa | 0 mm | 0.45 m/s, 200° | 21 W/m² | - |
| 1787878359 | 27.78° C | 86% | 1009.7 hPa | 0 mm | 0.45 m/s, 207° | 18 W/m² | - |
| 1787878297 | 27.78° C | 86% | 1009.7 hPa | 0 mm | 0.89 m/s, 231° | 17 W/m² | - |
| 1787878237 | 27.78° C | 86% | 1009.8 hPa | 0 mm | 0.45 m/s, 257° | 16 W/m² | - |
| 1787878175 | 27.78° C | 86% | 1009.6 hPa | 0 mm | 0.89 m/s, 222° | 14 W/m² | - |
| 1787878114 | 27.78° C | 86% | 1009.6 hPa | 0 mm | 1.79 m/s, 237° | 13 W/m² | - |
| 1787878054 | 27.78° C | 86% | 1009.6 hPa | 0 mm | 1.79 m/s, 223° | 11 W/m² | - |
| 1787877993 | 27.78° C | 86% | 1009.7 hPa | 0 mm | 1.34 m/s, 218° | 10 W/m² | - |
| 1787877931 | 27.78° C | 86% | 1009.6 hPa | 0 mm | 2.68 m/s, 205° | 9 W/m² | - |
| 1787877870 | 27.78° C | 86% | 1009.6 hPa | 0 mm | 2.24 m/s, 272° | 9 W/m² | - |
| 1787877810 | 27.78° C | 86% | 1009.5 hPa | 0 mm | 0.45 m/s, 204° | 8 W/m² | - |
| 1787877748 | 27.78° C | 86% | 1009.6 hPa | 0 mm | 0.89 m/s, 220° | 7 W/m² | - |
| 1787877687 | 27.78° C | 86% | 1009.6 hPa | 0 mm | 0.89 m/s, 232° | 7 W/m² | - |
| 1787877626 | 27.78° C | 86% | 1009.6 hPa | 0 mm | 0.89 m/s, 229° | 6 W/m² | - |
| 1787877565 | 27.78° C | 86% | 1009.7 hPa | 0 mm | 0.89 m/s, 175° | 5 W/m² | - |
| 1787877504 | 27.78° C | 86% | 1009.5 hPa | 0 mm | 0.45 m/s, 231° | 5 W/m² | - |
| 1787877444 | 27.78° C | 86% | 1009.6 hPa | 0 mm | 1.34 m/s, 210° | 4 W/m² | - |
| 1787877382 | 27.78° C | 86% | 1009.6 hPa | 0 mm | 1.79 m/s, 263° | 4 W/m² | - |
| 1787877321 | 27.78° C | 86% | 1009.4 hPa | 0 mm | 0.45 m/s, 202° | 3 W/m² | - |
| 1787877260 | 27.78° C | 86% | 1009.5 hPa | 0 mm | 1.34 m/s, 216° | 3 W/m² | - |
| 1787877199 | 27.78° C | 86% | 1009.6 hPa | 0 mm | 1.34 m/s, 215° | 3 W/m² | - |
| 1787877138 | 27.78° C | 86% | 1009.6 hPa | 0 mm | 1.79 m/s, 158° | 2 W/m² | - |
* Rain latest hour (hover to see other rain measurements)
** Current wind speed in m/s (hover to see current wind gust speed)